Regional Weather Roundup
Issued by NWS

Home | Current Version | Previous Version | Graphics & Text | Print | Product List | Glossary On
Versions: 1 2 3 4 5 6 7 8 9 10 11 12 13 14 15 16 17 18 19 20 21 22 23 24 25 26 27 28 29 30 31 32 33 34 35 36 37 38 39 40 41 42 43 44 45 46 47 48 49 50
089
ASUS43 KLMK 261702
RWRKY
KENTUCKY REGIONAL WEATHER ROUNDUP
NATIONAL WEATHER SERVICE LOUISVILLE KY
100 PM EDT FRI MAY 26 2017

NOTE "FAIR" INDICATES FEW OR NO CLOUDS BELOW 12,000 FEET
WITH NO SIGNIFICANT WEATHER AND/OR OBSTRUCTIONS TO VISIBILITY.

KYZ001>023-026-027-061>063-070>075-261800-
WESTERN AND SOUTH CENTRAL KENTUCKY

CITY           SKY/WX    TMP DP  RH WIND       PRES   REMARKS
PADUCAH        SUNNY     81  53  37 S14G25    29.81F
HENDERSON      PTSUNNY   76  63  64 S12G22    29.85F
OWENSBORO      PTSUNNY   76  62  62 SE16      29.85F
HOPKINSVILLE   PTSUNNY   78  62  57 S13       29.90F
BOWLING GREEN  PTSUNNY   77  62  59 S13G18    29.95F
GLASGOW        NOT AVBL
$$

KYZ024-025-028>034-038-045-046-053-261800-
NORTH CENTRAL KENTUCKY

CITY           SKY/WX    TMP DP  RH WIND       PRES   REMARKS
LOUISVILLE/SDF PTSUNNY   78  59  51 SW10      29.92F
LOUISVILLE/LOU SUNNY     77  60  55 SW13G18   29.93F
FORT KNOX      MOSUNNY   76  60  56 S9        29.91F
$$

KYZ035>037-039>044-047>052-055>060-089>105-261800-
NORTHEAST KENTUCKY

CITY           SKY/WX    TMP DP  RH WIND       PRES   REMARKS
LEXINGTON      MOSUNNY   74  56  53 SW9       29.98F
COVINGTON      MOSUNNY   74  56  53 W9        29.93F
FRANKFORT      MOSUNNY   75  55  49 SW9       29.95F
$$

KYZ054-064>069-076>088-106>120-261800-
SOUTHEAST KENTUCKY

CITY           SKY/WX    TMP DP  RH WIND       PRES   REMARKS
JACKSON        CLOUDY    70  56  61 VRB7      30.01R
LONDON         MOSUNNY   73  51  46 W12       30.03R
SOMERSET       NOT AVBL
MIDDLESBORO    MOSUNNY   74  54  49 NW9       30.03S
MONTICELLO     MOSUNNY   76  59  55 W15G21    30.04S
$$





USA.gov is the U.S. government's official web portal to all federal, state and local government web resources and services.